Regional Weather Roundup
Issued by NWS

Home | Current Version | Previous Version | Graphics & Text | Print | Product List | Glossary On
Versions: 1 2 3 4 5 6 7 8 9 10 11 12 13 14 15 16 17 18 19 20 21 22 23 24 25 26 27 28 29 30 31 32 33 34 35 36 37 38 39 40 41 42 43 44 45 46 47 48 49 50
027
ASUS43 KLOT 210603
RWRIL

ILLINOIS REGIONAL WEATHER ROUNDUP
NATIONAL WEATHER SERVICE CHICAGO/ROMEOVILLE IL
1200 AM CST SUN JAN 21 2018

NOTE: "FAIR" INDICATES FEW OR NO CLOUDS BELOW 12,000 FEET WITH NO
SIGNIFICANT WEATHER AND/OR OBSTRUCTIONS TO VISIBILITY.

* THESE STATIONS ARE NOT UNDER NWS QUALITY CONTROL. THEY ALSO MAY NOT
  REPORT WEATHER SUCH AS PRECIPITATION OR FOG.

ILZ001-002-007-009-015-016-024-210700-
NORTHWEST ILLINOIS

CITY           SKY/WX    TMP DP  RH WIND       PRES   REMARKS
MOLINE         CLOUDY    40  37  89 CALM      29.93S
6HR MIN TEMP:  40; 6HR MAX TEMP:  43;

STERLING*      CLOUDY    36  35  96 E3        29.96S FOG
SAVANNA*       CLOUDY    35  34  96 CALM      29.96S FOG
$$

ILZ003-004-008-010-011-017-018-210700-
NORTH CENTRAL ILLINOIS

CITY           SKY/WX    TMP DP  RH WIND       PRES   REMARKS
ROCKFORD       CLOUDY    36  34  92 SE3       29.98F
6HR MIN TEMP:  33; 6HR MAX TEMP:  38;

FREEPORT*      CLOUDY    33  33  98 CALM      29.97S FOG
ROCHELLE*      CLOUDY    37  36  96 CALM      29.96F FOG
DE KALB*       CLOUDY    37  36  96 S6        29.97F FOG     WCI  32
PERU*          CLOUDY    40  36  87 S6        29.97F
$$

ILZ005-006-012>014-019>023-210700-
NORTHEAST ILLINOIS

CITY           SKY/WX    TMP DP  RH WIND       PRES   REMARKS
CHICAGO-OHARE  CLOUDY    38  35  89 S3        29.98F
6HR MIN TEMP:  38; 6HR MAX TEMP:  42;

CHICAGO-MIDWAY CLOUDY    41  37  86 S6        29.99F
6HR MIN TEMP:  41; 6HR MAX TEMP:  43;

AURORA         CLOUDY    37  36  96 CALM      29.97F FOG
6HR MIN TEMP:  37; 6HR MAX TEMP:  40;

LANSING*       CLOUDY    37  36  94 CALM      30.01F
JOLIET*        CLOUDY    40  38  92 SE3       29.99F
WAUKEGAN       CLOUDY    37  35  92 S3        29.98S FOG
6HR MIN TEMP:  30; 6HR MAX TEMP:  38;

DUPAGE AIRPORT CLOUDY    38  37  97 S7        29.97F FOG     WCI  33
6HR MIN TEMP:  37; 6HR MAX TEMP:  39;

KANKAKEE*      CLOUDY   N/A N/A N/A S3        30.02F
WHEELING       CLOUDY    39  36  89 CALM      29.99F
6HR MIN TEMP:  34; 6HR MAX TEMP:  42;

MORRIS*        CLOUDY    38  36  92 SE5       29.98F WCI  34
NORTHERLY ISL    N/A     41  36  82 S9          N/A
$$

LMZ740>746-210700-
SOUTHERN LAKE MICHIGAN

STATION/POSITION SKY/WX   TEMP    WIND        PRES    VSBY  WAVE
                          AIR SEA DIR/SP/G                  HT/PER
                          (F)     (DEG/KT/KT) (MB)    (MI)  (FT/S)
HARRISON CRIB              40     170/ 12/ 13   N/A
BURNHAM HARBOR             41     200/  6/  9   N/A
CALUMET HARBOR             39     180/  4/  6 1015.6R
BURNS HARBOR               38     180/  8/ 11 1016.9F
MICHIGAN CITY              38     170/ 10/ 12   N/A
$$

ILZ025>027-034>036-040-047-049-050-058-095>099-210700-
WEST-CENTRAL ILLINOIS

CITY           SKY/WX    TMP DP  RH WIND       PRES   REMARKS
QUINCY         MOCLDY    38  36  92 E9        29.92S WCI  31
MACOMB*        CLOUDY    41  38  87 CALM      29.96S
JACKSONVILLE*  CLEAR     31  31  97 E5        29.95S FOG     WCI  27
PITTSFIELD*    MOCLDY    38  37  94 SE5       29.95R WCI  35
$$

ILZ028>032-037-038-041>044-048-051>054-059>061-210700-
CENTRAL ILLINOIS

CITY           SKY/WX    TMP DP  RH WIND       PRES   REMARKS
BLOOMINGTON    CLOUDY    38  36  92 S7        29.99F FOG     WCI  33
DECATUR        CLOUDY    41  41 100 S8        29.99F FOG
PEORIA         CLOUDY    42  37  82 S7        29.97F
6HR MIN TEMP:  42; 6HR MAX TEMP:  44;

SPRINGFIELD    CLOUDY    39  37  92 SE6       29.97F WCI  35
6HR MIN TEMP:  36; 6HR MAX TEMP:  47;

TAYLORVILLE    FAIR      39  39  99 S12       29.98S FOG     WCI  32
6HR MIN TEMP:  37; 6HR MAX TEMP:  42;

$$

ILZ033-039-045-046-055>057-062-063-210700-
EAST-CENTRAL ILLINOIS

CITY           SKY/WX    TMP DP  RH WIND       PRES   REMARKS
CHAMPAIGN      FOG       39  39 100 SE6       30.01F VSB 1/4 WCI  35
DANVILLE*      FOG       39  38  99 SW8       30.00F VSB 1/2 WCI  33
RANTOUL*       FOG       39  39  99 S3        30.01F VSB 1/2
MATTOON        CLOUDY    40  40 100 S10       30.01F FOG
$$

ILZ079-100>102-210700-
SOUTHWEST ILLINOIS

CITY           SKY/WX    TMP DP  RH WIND       PRES   REMARKS
BELLEVILLE     CLOUDY    43  41  90 S5        29.98S
CAHOKIA*       CLOUDY    41  39  93 S7        29.97F
SPARTA*        CLOUDY    47  47  98 S9        29.99S
$$

ILZ064>066-069>071-074>076-080>082-084>086-088>090-092>094-210700-
SOUTH-CENTRAL ILLINOIS

CITY           SKY/WX    TMP DP  RH WIND       PRES   REMARKS
CARBONDALE     FAIR      47  46  97 S10       30.01F
6HR MIN TEMP:  43; 6HR MAX TEMP:  49;

CAIRO*         CLOUDY    46  44  91 S7        30.05F
EFFINGHAM*     CLOUDY    40  40 100 E6        30.04F FOG
MARION         MOCLDY    48  47  98 S16       30.03S
MT. VERNON     CLOUDY    45  43  93 S3        30.02S
CENTRALIA*     CLOUDY    44  42  95 CALM      30.00S
SALEM*         CLOUDY    47  44  87 SE5       30.01F
$$

ILZ067-068-072-073-078-083-087-091-210700-
SOUTHEAST ILLINOIS

CITY           SKY/WX    TMP DP  RH WIND       PRES   REMARKS
LAWRENCEVILLE  CLOUDY    37  32  82 CALM      30.07S
FLORA*         CLOUDY    43  40  90 SE5       30.04S
FAIRFIELD*     FAIR      44  43  98 CALM      30.02F
HARRISBURG*    FAIR      50  46  87 S7        30.04F
ROBINSON*      CLOUDY    40  38  95 S5        30.06F
CARMI*         CLOUDY    38  37  97 SE5       30.04F WCI  34
$$

ABBREVIATIONS USED IN REMARKS
   TC - TEMPERATURE IN CELSIUS
  WCI - WIND CHILL INDEX
   HX - HEAT INDEX
  VSB - VISIBILITY
$$





USA.gov is the U.S. government's official web portal to all federal, state and local government web resources and services.